Location: Bottenau
(48.5138°N, 8.0462°E)
Time: 08:58:39
(UTC+00:00)

Cosmos 1092 Rocket - Pass Details

Date: 18 April 2021
Orbit: 954 x 995 km, 82.9° (Epoch: 05 May)

Event Time Altitude Azimuth Distance (km) Brightness Sun altitude
Rises 18:56:44 0° 352° (N) 3,702 7.5 -5.9°
Reaches altitude 10° 18:59:19 10° 356° (N) 2,744 6.8 -6.3°
Maximum altitude 19:05:33 64° 78° (ENE) 1,073 4.1 -7.3°
Drops below altitude 10° 19:11:41 10° 159° (SSE) 2,697 5.9 -8.2°
Sets 19:14:11 0° 163° (SSE) 3,634 6.6 -8.5°
